FW6684 Weather Reports


Display with metric or nautical units.
time (UTC)temp
F
wind
direction
speed
MPH
gust
MPH
rain 1hr
in
rain 24hr
in
rain mn
in
humidity
%
barometer
mb
20260901190542 67 240 3.0 7.0 0.00 0.00 0.00 63 1021.4
20260901190114 67 259 2.0 7.0 0.00 0.00 0.00 62 1021.3
20260901185542 67 250 3.0 8.0 0.00 0.00 0.00 61 1021.4
20260901185042 67 258 3.0 8.0 0.00 0.00 0.00 61 1021.4
20260901184607 67 198 4.0 8.0 0.00 0.00 0.00 61 1021.4
20260901184047 68 254 1.0 5.0 0.00 0.00 0.00 61 1021.3
20260901183547 68 246 2.0 5.0 0.00 0.00 0.00 61 1021.2
20260901183105 68 236 2.0 5.0 0.00 0.00 0.00 60 1021.1
20260901182548 68 242 2.0 6.0 0.00 0.00 0.00 60 1021.2
20260901182045 68 248 2.0 7.0 0.00 0.00 0.00 59 1021.1
20260901181600 69 258 2.0 7.0 0.00 0.00 0.00 59 1021.1
20260901181044 69 238 3.0 7.0 0.00 0.00 0.00 59 1021.2
20260901180544 69 269 2.0 8.0 0.00 0.00 0.00 58 1021.5
20260901180106 69 259 4.0 8.0 0.00 0.00 0.00 58 1021.4
20260901175547 69 321 3.0 10.0 0.00 0.00 0.00 57 1021.3
20260901175043 70 261 5.0 10.0 0.00 0.00 0.00 57 1021.4
20260901174606 70 239 3.0 8.0 0.00 0.00 0.00 56 1021.3
20260901174043 70 188 4.0 12.0 0.00 0.00 0.00 56 1021.3
20260901173544 70 263 4.0 12.0 0.00 0.00 0.00 56 1021.2
20260901173105 70 250 3.0 9.0 0.00 0.00 0.00 56 1021.3
20260901172544 70 312 4.0 8.0 0.00 0.00 0.00 56 1021.3
20260901172043 70 278 3.0 8.0 0.00 0.00 0.00 56 1021.3
20260901171609 70 303 3.0 8.0 0.00 0.00 0.00 57 1021.3
20260901171044 71 239 4.0 8.0 0.00 0.00 0.00 56 1021.3
20260901170544 71 230 3.0 11.0 0.00 0.00 0.00 56 1021.3
20260901170158 71 243 4.0 11.0 0.00 0.00 0.00 56 1021.2
20260901165546 71 249 5.0 10.0 0.00 0.00 0.00 55 1021.3
20260901165046 71 279 5.0 9.0 0.00 0.00 0.00 55 1021.3
20260901164604 71 213 3.0 9.0 0.00 0.00 0.00 56 1021.2
20260901164044 70 236 4.0 12.0 0.00 0.00 0.00 56 1021.3
20260901163543 70 272 3.0 12.0 0.00 0.00 0.00 56 1021.2
20260901163107 70 245 6.0 13.0 0.00 0.00 0.00 55 1021.3
20260901162546 70 254 6.0 13.0 0.00 0.00 0.00 55 1021.3
20260901162043 70 246 6.0 13.0 0.00 0.00 0.00 56 1021.2
20260901161614 71 247 4.0 13.0 0.00 0.00 0.00 56 1021.4
20260901161044 71 231 5.0 12.0 0.00 0.00 0.00 57 1021.4
20260901160543 70 232 6.0 12.0 0.00 0.00 0.00 57 1021.4
20260901160106 70 271 4.0 11.0 0.00 0.00 0.00 58 1021.4
20260901155544 70 303 5.0 11.0 0.00 0.00 0.00 58 1021.4
20260901155044 70 290 6.0 11.0 0.00 0.00 0.00 57 1021.4
20260901154607 70 211 3.0 11.0 0.00 0.00 0.00 56 1021.5
20260901154044 70 263 2.0 13.0 0.00 0.00 0.00 56 1021.5
20260901153544 70 279 5.0 13.0 0.00 0.00 0.00 56 1021.5
20260901153124 70 236 3.0 8.0 0.00 0.00 0.00 56 1021.5
20260901152543 70 237 3.0 12.0 0.00 0.00 0.00 55 1021.5
20260901152043 70 286 5.0 12.0 0.00 0.00 0.00 55 1021.5
20260901151604 70 211 5.0 11.0 0.00 0.00 0.00 54 1021.6
20260901151044 70 228 4.0 11.0 0.00 0.00 0.00 56 1021.6
20260901150548 70 235 3.0 10.0 0.00 0.00 0.00 57 1021.5
20260901150059 70 281 3.0 10.0 0.00 0.00 0.00 56 1021.5
20260901145544 70 266 4.0 13.0 0.00 0.00 0.00 57 1021.5
20260901145043 70 237 6.0 13.0 0.00 0.00 0.00 57 1021.6
20260901144601 70 249 5.0 12.0 0.00 0.00 0.00 57 1021.7
20260901144045 70 207 4.0 12.0 0.00 0.00 0.00 57 1021.7
20260901143543 70 190 6.0 11.0 0.00 0.00 0.00 56 1021.7
20260901143103 70 238 6.0 12.0 0.00 0.00 0.00 57 1021.6
20260901142545 70 252 7.0 16.0 0.00 0.00 0.00 56 1021.7
20260901142043 70 232 7.0 16.0 0.00 0.00 0.00 55 1021.7
20260901141558 71 236 8.0 16.0 0.00 0.00 0.00 55 1021.7
20260901141044 72 208 6.0 17.0 0.00 0.00 0.00 55 1021.7
20260901140543 72 217 9.0 17.0 0.00 0.00 0.00 53 1021.7
20260901140103 72 207 7.0 15.0 0.00 0.00 0.00 53 1021.5
20260901135546 71 281 6.0 15.0 0.00 0.00 0.00 55 1021.5
20260901135044 71 280 5.0 12.0 0.00 0.00 0.00 54 1021.4
20260901134601 70 238 5.0 12.0 0.00 0.00 0.00 56 1021.6
20260901134043 69 211 6.0 11.0 0.00 0.00 0.00 57 1021.5
20260901133543 69 259 3.0 10.0 0.00 0.00 0.00 58 1021.6
20260901133057 69 209 3.0 15.0 0.00 0.00 0.00 58 1021.6
20260901132544 69 233 7.0 15.0 0.00 0.00 0.00 58 1021.7
20260901132044 69 259 3.0 8.0 0.00 0.00 0.00 58 1021.7
20260901131614 69 317 3.0 9.0 0.00 0.00 0.00 58 1021.8
20260901131044 69 225 4.0 12.0 0.00 0.00 0.00 58 1021.8
20260901130544 69 302 6.0 12.0 0.00 0.00 0.00 58 1021.9
20260901130105 69 228 4.0 10.0 0.00 0.00 0.00 58 1021.9
20260901125543 70 217 4.0 10.0 0.00 0.00 0.00 58 1021.9
20260901125044 69 196 4.0 10.0 0.00 0.00 0.00 58 1022.0
20260901124602 69 196 5.0 10.0 0.00 0.00 0.00 59 1022.0
20260901124044 69 193 5.0 11.0 0.00 0.00 0.00 59 1022.0
20260901123543 69 221 4.0 11.0 0.00 0.00 0.00 59 1022.0
20260901123105 69 209 6.0 11.0 0.00 0.00 0.00 59 1021.9
20260901122544 68 202 4.0 9.0 0.00 0.00 0.00 61 1022.1
20260901122043 68 279 2.0 9.0 0.00 0.00 0.00 62 1022.1
20260901121601 68 244 2.0 11.0 0.00 0.00 0.00 61 1022.1
20260901121044 68 204 5.0 11.0 0.00 0.00 0.00 60 1022.2
20260901120546 68 212 4.0 11.0 0.00 0.00 0.00 62 1022.2
20260901120105 68 238 3.0 11.0 0.00 0.00 0.00 61 1022.2
20260901115543 67 265 4.0 10.0 0.00 0.00 0.00 61 1022.1
20260901115043 68 242 1.0 9.0 0.00 0.00 0.00 63 1022.3
20260901114558 68 279 3.0 12.0 0.00 0.00 0.00 63 1022.2
20260901114044 67 237 4.0 13.0 0.00 0.00 0.00 63 1022.2
20260901113544 67 210 4.0 13.0 0.00 0.00 0.00 63 1022.2
20260901113110 67 259 4.0 10.0 0.00 0.00 0.00 63 1022.2
20260901112543 67 291 5.0 12.0 0.00 0.00 0.00 62 1022.3
20260901112046 67 259 6.0 12.0 0.00 0.00 0.00 62 1022.2
20260901111610 67 217 5.0 11.0 0.00 0.00 0.00 64 1022.3
20260901111044 67 225 4.0 11.0 0.00 0.00 0.00 63 1022.3
20260901110543 67 270 6.0 11.0 0.00 0.00 0.00 62 1022.3
20260901110115 66 229 7.0 10.0 0.00 0.00 0.00 62 1022.6
20260901105543 66 220 4.0 10.0 0.00 0.00 0.00 64 1022.7
20260901105043 66 225 5.0 10.0 0.00 0.00 0.00 63 1022.6
20260901104608 66 250 4.0 10.0 0.00 0.00 0.00 64 1022.6
20260901104044 66 245 3.0 9.0 0.00 0.00 0.00 65 1022.5
20260901103543 65 212 2.0 9.0 0.00 0.00 0.00 65 1022.6
20260901103101 65 259 3.0 11.0 0.00 0.00 0.00 65 1022.5
20260901102544 65 242 3.0 11.0 0.00 0.00 0.00 65 1022.6
20260901102044 65 229 2.0 12.0 0.00 0.00 0.00 65 1022.6
20260901101607 65 217 6.0 12.0 0.00 0.00 0.00 64 1022.7
20260901101044 65 226 3.0 11.0 0.00 0.00 0.00 65 1022.7
20260901100547 65 217 1.0 7.0 0.00 0.00 0.00 67 1022.8
20260901100110 64 221 1.0 5.0 0.00 0.00 0.00 69 1022.7
20260901095545 64 0 2.0 7.0 0.00 0.00 0.00 67 1022.8
20260901095045 63 273 2.0 7.0 0.00 0.00 0.00 68 1022.8
20260901094606 63 268 2.0 7.0 0.00 0.00 0.00 69 1022.9
20260901094043 63 219 2.0 7.0 0.00 0.00 0.00 71 1022.8
20260901093543 63 211 4.0 7.0 0.00 0.00 0.00 71 1022.9
20260901093105 63 210 3.0 7.0 0.00 0.00 0.00 71 1022.9
20260901092543 63 281 2.0 10.0 0.00 0.00 0.00 71 1023.0
20260901092045 63 225 4.0 10.0 0.00 0.00 0.00 71 1023.0
20260901091601 63 222 3.0 9.0 0.00 0.00 0.00 71 1023.0
20260901091044 62 0 0.0 0.0 0.00 0.00 0.00 72 1022.9
20260901090547 62 0 0.0 0.0 0.00 0.00 0.00 73 1023.0
20260901090106 62 0 0.0 0.0 0.00 0.00 0.00 75 1023.0
20260901085544 61 0 0.0 0.0 0.00 0.00 0.00 78 1023.0
20260901085045 61 0 0.0 0.0 0.00 0.00 0.00 79 1023.0
20260901084610 60 0 0.0 0.0 0.00 0.00 0.00 79 1022.9
20260901084044 60 0 0.0 0.0 0.00 0.00 0.00 80 1022.9
20260901083544 60 0 0.0 0.0 0.00 0.00 0.00 81 1022.8
20260901083104 59 0 0.0 0.0 0.00 0.00 0.00 83 1022.8
20260901082543 59 0 0.0 0.0 0.00 0.00 0.00 83 1022.8
20260901082043 59 0 0.0 0.0 0.00 0.00 0.00 87 1022.8
20260901081616 58 0 0.0 0.0 0.00 0.00 0.00 87 1022.9
20260901081043 57 0 0.0 0.0 0.00 0.00 0.00 88 1022.8
20260901080546 57 0 0.0 0.0 0.00 0.00 0.00 88 1022.7
20260901080107 56 0 0.0 0.0 0.00 0.00 0.00 89 1022.8
20260901075543 56 0 0.0 0.0 0.00 0.00 0.00 89 1022.7
20260901075046 55 0 0.0 0.0 0.00 0.00 0.00 89 1022.8
20260901074603 55 0 0.0 0.0 0.00 0.00 0.00 90 1022.7
20260901074046 55 0 0.0 0.0 0.00 0.00 0.00 90 1022.7
20260901073545 55 0 0.0 0.0 0.00 0.00 0.00 91 1022.7
20260901073102 55 0 0.0 0.0 0.00 0.00 0.00 91 1022.7
20260901072545 55 0 0.0 0.0 0.00 0.00 0.00 91 1022.7
20260901072044 54 0 0.0 0.0 0.00 0.00 0.00 91 1022.7
20260901071601 54 0 0.0 0.0 0.00 0.00 0.00 91 1022.7
20260901071043 54 0 0.0 0.0 0.00 0.00 0.00 92 1022.7
20260901070543 54 0 0.0 0.0 0.00 0.00 0.00 91 1022.6
20260901070058 54 0 0.0 0.0 0.00 0.00 0.00 92 1022.7
20260901065544 53 0 0.0 0.0 0.00 0.00 0.00 93 1022.7
20260901065044 53 0 0.0 0.0 0.00 0.00 0.00 92 1022.7
20260901064602 53 0 0.0 0.0 0.00 0.00 0.00 92 1022.7
20260901064044 53 0 0.0 0.0 0.00 0.00 0.00 92 1022.7
20260901063543 52 0 0.0 0.0 0.00 0.00 0.00 91 1022.6
20260901063106 52 0 0.0 0.0 0.00 0.00 0.00 91 1022.5
20260901062543 52 0 0.0 0.0 0.00 0.00 0.00 91 1022.4
20260901062043 52 0 0.0 0.0 0.00 0.00 0.00 92 1022.4
20260901061614 52 0 0.0 0.0 0.00 0.00 0.00 91 1022.4
20260901061043 52 0 0.0 0.0 0.00 0.00 0.00 91 1022.4
20260901060547 52 0 0.0 0.0 0.00 0.00 0.00 91 1022.4
20260901060106 52 0 0.0 0.0 0.00 0.00 0.00 91 1022.2
20260901055543 52 0 0.0 0.0 0.00 0.00 0.00 91 1022.2
20260901055043 52 0 0.0 0.0 0.00 0.00 0.00 91 1022.2
20260901054614 52 0 0.0 0.0 0.00 0.00 0.00 91 1022.3
20260901054046 52 0 0.0 0.0 0.00 0.00 0.00 91 1022.2
20260901053544 52 0 0.0 0.0 0.00 0.00 0.00 91 1022.2
20260901053122 52 0 0.0 0.0 0.00 0.00 0.00 91 1022.1
20260901052544 52 0 0.0 0.0 0.00 0.00 0.00 91 1022.1
20260901052044 52 0 0.0 0.0 0.00 0.00 0.00 91 1022.1
20260901051604 52 0 0.0 0.0 0.00 0.00 0.00 90 1022.1
20260901051044 52 0 0.0 0.0 0.00 0.00 0.00 90 1022.0
20260901050544 53 0 0.0 0.0 0.00 0.00 0.00 90 1022.0
20260901045543 53 0 0.0 0.0 0.00 0.00 0.00 90 1021.9
20260901045043 53 0 0.0 0.0 0.00 0.00 0.00 90 1021.9
20260901044603 53 0 0.0 0.0 0.00 0.00 0.00 90 1022.0
20260901044044 53 0 0.0 0.0 0.00 0.00 0.00 90 1021.9
20260901043544 53 0 0.0 0.0 0.00 0.00 0.00 90 1021.9
20260901043107 53 0 0.0 0.0 0.00 0.00 0.00 89 1021.9
20260901042543 53 0 0.0 0.0 0.00 0.00 0.00 89 1021.8
20260901042043 53 0 0.0 0.0 0.00 0.00 0.00 89 1021.8
20260901041610 53 0 0.0 0.0 0.00 0.00 0.00 89 1021.8
20260901041043 53 0 0.0 0.0 0.00 0.00 0.00 89 1021.7
20260901040543 53 0 0.0 0.0 0.00 0.00 0.00 88 1021.6
20260901040134 53 0 0.0 0.0 0.00 0.00 0.00 88 1021.6
20260901035544 53 0 0.0 0.0 0.00 0.00 0.00 88 1021.6
20260901035044 53 0 0.0 0.0 0.00 0.00 0.00 88 1021.5
20260901034601 54 0 0.0 0.0 0.00 0.00 0.00 88 1021.6
20260901034043 54 0 0.0 0.0 0.00 0.00 0.00 88 1021.6
20260901033543 54 0 0.0 0.0 0.00 0.00 0.00 88 1021.5
20260901033125 54 0 0.0 0.0 0.00 0.00 0.00 88 1021.5
20260901032543 54 0 0.0 0.0 0.00 0.00 0.00 87 1021.5
20260901032043 54 0 0.0 0.0 0.00 0.00 0.00 87 1021.6
20260901031613 54 0 0.0 0.0 0.00 0.00 0.00 87 1021.5
20260901031046 54 0 0.0 0.0 0.00 0.00 0.00 87 1021.5
20260901030543 54 0 0.0 0.0 0.00 0.00 0.00 87 1021.5
20260901030107 54 0 0.0 0.0 0.00 0.00 0.00 87 1021.5
20260901025544 54 0 0.0 0.0 0.00 0.00 0.00 87 1021.5
20260901025044 54 0 0.0 0.0 0.00 0.00 0.00 87 1021.3
20260901024605 54 0 0.0 0.0 0.00 0.00 0.00 87 1021.2
20260901024044 54 0 0.0 0.0 0.00 0.00 0.00 87 1021.2
20260901023543 54 0 0.0 0.0 0.00 0.00 0.00 88 1021.1
20260901023107 54 0 0.0 0.0 0.00 0.00 0.00 87 1021.2
20260901022544 54 0 0.0 0.0 0.00 0.00 0.00 87 1021.3
20260901022044 54 0 0.0 0.0 0.00 0.00 0.00 87 1021.2
20260901021609 54 0 0.0 0.0 0.00 0.00 0.00 86 1021.3
20260901021044 54 0 0.0 0.0 0.00 0.00 0.00 86 1021.3
20260901020546 55 0 0.0 0.0 0.00 0.00 0.00 86 1021.2
20260901020108 55 0 0.0 0.0 0.00 0.00 0.00 85 1021.4
20260901015543 55 0 0.0 0.0 0.00 0.00 0.00 85 1021.3
20260901015042 55 0 0.0 0.0 0.00 0.00 0.00 85 1021.3
20260901014602 55 0 0.0 0.0 0.00 0.00 0.00 84 1021.4
20260901014046 56 0 0.0 0.0 0.00 0.00 0.00 84 1021.4
20260901013544 56 0 0.0 0.0 0.00 0.00 0.00 84 1021.4
20260901013109 56 0 0.0 1.0 0.00 0.00 0.00 83 1021.4
20260901012543 56 0 0.0 1.0 0.00 0.00 0.00 83 1021.4
20260901012043 57 0 0.0 1.0 0.00 0.00 0.00 82 1021.4
20260901011604 57 0 0.0 1.0 0.00 0.00 0.00 82 1021.4
20260901011043 57 0 0.0 1.0 0.00 0.00 0.00 82 1021.4
20260901010543 57 0 0.0 3.0 0.00 0.00 0.00 82 1021.3
20260901010101 57 0 0.0 3.0 0.00 0.00 0.00 82 1021.3
20260901005546 57 0 0.0 3.0 0.00 0.02 0.00 82 1021.3
20260901005044 57 259 0.0 3.0 0.00 0.02 0.00 81 1021.3
20260901004608 57 0 0.0 3.0 0.00 0.02 0.00 81 1021.2
20260901004045 57 0 0.0 2.0 0.00 0.02 0.00 81 1021.3
20260901003544 57 259 0.0 3.0 0.00 0.02 0.00 81 1021.3
20260901003107 57 259 0.0 3.0 0.00 0.02 0.00 80 1021.3
20260901002544 58 259 1.0 3.0 0.00 0.02 0.00 80 1021.3
20260901002044 58 259 1.0 4.0 0.00 0.02 0.00 80 1021.3
20260901001609 58 260 1.0 4.0 0.00 0.02 0.00 80 1021.2
20260901001043 58 259 1.0 4.0 0.00 0.02 0.00 79 1021.2
20260901000544 58 0 0.0 4.0 0.00 0.02 0.00 79 1021.1
20260901000106 58 0 0.0 4.0 0.00 0.02 0.00 79 1021.0
20260831235544 58 261 1.0 4.0 0.00 0.02 0.00 79 1021.1
20260831235045 58 263 1.0 4.0 0.00 0.02 0.00 78 1021.1
20260831234601 59 280 1.0 4.0 0.00 0.02 0.00 78 1021.1
20260831234044 59 256 2.0 4.0 0.00 0.02 0.00 78 1021.1
20260831233544 59 255 1.0 4.0 0.00 0.02 0.00 78 1021.1
20260831233104 59 0 1.0 4.0 0.00 0.02 0.00 78 1020.9
20260831232543 59 0 1.0 4.0 0.00 0.02 0.00 78 1021.0
20260831232043 59 273 2.0 4.0 0.00 0.02 0.00 77 1021.0
20260831231604 59 278 1.0 3.0 0.00 0.02 0.00 77 1021.0
20260831231044 60 285 1.0 3.0 0.00 0.02 0.00 77 1021.1
20260831230544 60 291 0.0 3.0 0.00 0.02 0.00 77 1020.9
20260831230142 60 0 0.0 3.0 0.00 0.02 0.00 76 1020.9
20260831225544 60 290 1.0 4.0 0.00 0.02 0.02 76 1020.9
20260831225043 60 0 1.0 4.0 0.00 0.02 0.02 76 1020.9
20260831224619 60 312 1.0 4.0 0.00 0.02 0.02 76 1020.9
20260831224043 60 296 1.0 4.0 0.00 0.02 0.02 75 1020.8
20260831223547 61 308 1.0 5.0 0.00 0.02 0.02 75 1020.9
20260831223103 61 306 2.0 5.0 0.00 0.02 0.02 75 1020.9
20260831222544 61 303 2.0 6.0 0.00 0.02 0.02 74 1020.7
20260831222045 61 298 2.0 6.0 0.00 0.02 0.02 74 1020.8
20260831221630 61 296 3.0 8.0 0.00 0.02 0.02 74 1020.8
20260831221044 61 292 3.0 8.0 0.00 0.02 0.02 74 1020.8
20260831220544 61 286 4.0 9.0 0.00 0.02 0.02 73 1020.6
20260831220105 61 311 4.0 9.0 0.00 0.02 0.02 74 1020.6
20260831215544 61 292 5.0 9.0 0.00 0.02 0.02 73 1020.6
20260831215044 62 263 2.0 5.0 0.00 0.02 0.02 73 1020.6
20260831214610 62 295 2.0 5.0 0.00 0.02 0.02 73 1020.6
20260831214043 62 0 0.0 5.0 0.00 0.02 0.02 73 1020.6
20260831213543 62 303 2.0 5.0 0.00 0.02 0.02 72 1020.6
20260831213103 62 305 2.0 5.0 0.00 0.02 0.02 72 1020.5
20260831212543 62 296 1.0 5.0 0.00 0.02 0.02 72 1020.5
20260831212043 62 284 2.0 6.0 0.00 0.02 0.02 71 1020.3
20260831211616 62 299 2.0 7.0 0.00 0.02 0.02 71 1020.2
20260831211043 62 304 3.0 9.0 0.00 0.02 0.02 70 1020.1
20260831210544 63 264 4.0 9.0 0.00 0.02 0.02 70 1020.2
20260831210103 63 298 4.0 12.0 0.00 0.02 0.02 70 1020.2
20260831205543 63 312 4.0 12.0 0.00 0.07 0.02 70 1020.2
20260831205043 63 319 5.0 12.0 0.00 0.07 0.02 69 1020.1
20260831204602 63 315 5.0 9.0 0.00 0.07 0.02 69 1020.1
20260831204044 63 308 4.0 9.0 0.00 0.07 0.02 69 1020.1
20260831203542 64 280 3.0 11.0 0.00 0.07 0.02 69 1020.0
20260831203107 64 275 4.0 11.0 0.00 0.07 0.02 69 1020.0
20260831202543 64 279 5.0 10.0 0.00 0.07 0.02 69 1019.9
20260831202044 64 313 5.0 10.0 0.00 0.07 0.02 70 1019.7
20260831201606 64 317 4.0 9.0 0.00 0.07 0.02 71 1019.8
20260831201044 64 269 5.0 9.0 0.00 0.07 0.02 72 1019.7
20260831200543 64 299 5.0 9.0 0.00 0.07 0.02 72 1019.5
20260831200104 64 298 3.0 8.0 0.00 0.07 0.02 72 1019.5
20260831195543 64 286 3.0 8.0 0.00 0.07 0.02 72 1019.5
20260831195043 65 299 3.0 6.0 0.00 0.07 0.02 72 1019.3
20260831194654 65 311 3.0 5.0 0.00 0.07 0.02 71 1019.3
20260831194043 65 277 1.0 3.0 0.00 0.07 0.02 71 1019.2
20260831193543 65 0 0.0 3.0 0.00 0.07 0.02 70 1019.2
20260831193103 65 275 1.0 3.0 0.00 0.07 0.02 70 1019.0
20260831192542 65 275 0.0 3.0 0.00 0.07 0.02 70 1018.9
20260831192043 66 275 1.0 3.0 0.00 0.07 0.02 69 1018.8
20260831191602 66 275 1.0 4.0 0.00 0.07 0.02 69 1018.6
20260831191041 66 279 1.0 5.0 0.00 0.07 0.02 69 1018.6